GFSWCAN_con_mucape_336.txt.gz
CAPE
0 0 0 0 0 0 0 0 0 0 0 0 0 0 0 0 0 0 0 0 0 0 0 0 0 0 0 0 0 0 0 0 0 0 0 0 0 0 9 13 19 108 238 142 372 440 260 32 110 625 523 771 968 1523
0 0 0 0 0 0 0 0 0 0 0 0 0 0 0 0 0 0 0 0 0 0 0 0 0 0 0 0 0 0 0 0 0 0 3 2 2 4 17 2 19 12 186 341 365 497 493 312 308 337 228 345 282 849
0 0 0 0 0 0 0 0 0 0 0 0 0 0 0 0 0 0 0 0 0 0 0 0 0 0 0 0 0 0 0 0 0 0 0 0 0 0 0 0 0 2 149 90 150 275 467 267 4 0 51 36 47 167
0 0 0 0 0 0 0 0 0 0 0 0 0 0 0 0 0 0 0 0 0 0 0 0 0 0 0 0 0 0 0 0 0 0 0 0 0 0 0 0 0 0 0 0 0 64 50 238 29 57 37 32 82 240
0 0 0 0 0 0 0 0 0 0 0 0 0 0 0 0 0 0 0 0 0 0 0 0 0 0 0 0 0 0 0 0 0 0 0 0 0 0 0 0 0 0 7 0 0 1 0 6 21 35 61 229 433 511
0 0 0 0 0 0 0 0 0 0 0 0 0 0 0 0 0 0 0 0 1 2 0 0 0 0 0 0 0 0 0 0 0 0 0 0 9 0 0 0 0 5 25 23 6 0 0 0 14 16 53 70 210 625
0 0 0 0 0 0 0 0 0 0 0 0 0 0 0 0 0 0 0 0 0 0 0 0 0 0 0 0 0 0 0 0 0 0 0 0 5 0 0 2 6 55 53 61 19 0 10 77 68 68 118 198 333 830
0 0 0 0 0 0 0 0 0 0 0 0 0 0 0 0 0 0 0 0 0 0 2 0 0 6 0 0 0 4 8 1 0 0 0 1 3 11 3 11 61 79 69 40 23 7 19 40 144 233 322 255 452 817
0 0 0 0 0 0 0 0 0 0 0 0 0 0 0 0 6 1 0 0 0 0 4 0 0 65 16 1 40 36 12 21 29 23 15 2 1 17 82 71 92 64 42 13 17 31 71 120 202 260 273 393 479 718
0 0 0 0 0 0 0 0 0 0 0 0 0 0 6 2 0 0 0 1 5 8 0 0 0 12 2 20 29 11 43 20 16 15 26 21 32 51 37 23 17 0 26 11 23 30 89 191 264 381 488 478 779 857
0 0 0 0 0 0 0 0 0 0 0 0 0 2 0 0 0 4 12 18 30 22 8 0 0 10 44 43 63 45 33 61 30 33 43 24 52 160 69 28 0 0 0 3 2 1 2 77 304 300 516 744 837 962
0 0 0 0 0 0 0 0 0 0 0 0 0 0 0 0 4 5 2 15 54 55 100 75 137 48 152 51 87 51 16 40 43 71 79 43 350 181 56 35 15 0 0 0 0 2 57 115 106 346 690 727 966 945
0 0 0 0 0 0 0 0 0 0 0 0 0 0 16 1 0 0 0 102 127 75 106 132 226 52 51 43 82 102 50 55 55 61 30 393 538 216 145 49 9 0 0 0 0 12 90 100 211 269 476 740 887 810
0 0 0 0 0 0 0 0 0 0 0 0 11 5 57 24 33 5 39 120 103 107 90 91 171 102 238 141 131 69 91 123 52 32 85 420 334 192 62 6 0 0 0 0 6 30 28 41 152 193 470 753 781 639
0 0 0 0 0 0 0 0 0 0 20 0 0 0 26 39 25 50 47 57 52 116 52 111 138 77 299 164 232 160 81 96 35 97 244 330 378 266 89 2 0 1 10 15 22 74 236 219 382 399 532 690 807 658
2 1 1 4 2 0 1 6 0 0 0 0 6 4 23 34 37 32 46 28 35 70 121 169 115 62 86 160 99 133 58 71 125 216 116 544 492 264 77 11 3 18 59 50 111 312 392 513 552 529 411 402 616 757
0 0 0 0 0 0 0 6 1 0 0 0 3 0 14 36 43 71 34 13 253 4 231 153 79 69 65 98 106 99 110 136 159 77 405 890 417 225 125 26 41 43 246 380 337 503 526 515 518 551 246 86 404 230
0 0 0 0 0 0 6 4 0 0 0 0 23 4 54 23 26 22 29 7 93 76 179 106 32 106 85 59 60 131 186 153 209 267 336 409 284 151 0 23 91 378 451 485 518 447 375 372 439 422 82 4 20 41
0 0 0 0 0 0 0 0 3 0 0 4 0 19 11 7 34 56 47 21 16 76 133 244 56 101 102 77 75 170 191 234 100 143 338 699 236 26 9 57 541 393 173 34 117 218 117 195 105 74 9 0 89 83
0 0 0 0 0 0 0 0 0 0 0 0 0 0 47 27 71 49 56 34 36 0 157 72 98 121 92 211 191 224 83 113 42 33 374 566 378 265 244 58 165 464 74 0 0 0 29 94 164 21 18 18 114 83
0 0 0 0 0 5 3 6 0 0 0 0 0 1 4 45 62 52 0 32 1 0 0 58 115 185 270 17 92 235 402 38 26 162 206 229 60 275 227 171 306 244 67 24 4 1 0 136 534 569 187 130 125 246
2 7 7 10 11 6 2 0 0 0 0 0 0 0 0 60 75 21 22 0 36 73 36 40 92 155 195 99 35 224 448 263 153 8 0 0 2 36 49 86 117 75 75 47 33 32 81 113 210 230 276 162 38 75
2 8 7 11 3 1 0 0 0 0 0 0 0 0 23 44 60 129 0 13 23 84 92 71 190 336 289 181 88 360 417 50 49 76 35 30 49 32 48 72 46 125 147 120 187 64 110 74 69 50 106 59 31 51
2 4 2 0 0 0 0 0 0 0 0 0 0 0 0 66 82 58 37 55 59 178 187 430 200 33 39 322 167 7 28 171 49 153 54 36 33 31 38 57 62 53 72 61 147 101 64 87 12 43 52 56 47 64
0 1 0 0 0 0 0 0 0 0 0 0 0 0 66 119 60 58 37 48 154 74 170 229 119 3 6 12 16 36 631 90 51 116 59 33 39 82 56 98 49 129 58 60 46 42 27 110 60 51 53 57 51 56
0 0 0 0 0 0 0 0 0 0 0 0 0 47 59 89 29 33 103 107 76 137 1 55 250 34 20 61 122 46 222 158 110 81 90 54 61 107 140 161 216 38 62 132 105 105 77 106 72 72 50 19 15 35
0 0 0 0 0 0 0 0 0 0 0 0 31 73 32 0 0 123 40 215 115 298 156 202 158 368 286 171 155 179 41 187 20 32 68 79 71 63 104 200 263 286 340 206 305 86 116 143 73 69 31 48 52 9
0 0 0 0 0 0 0 0 0 0 0 64 52 50 30 47 4 40 55 85 57 12 48 153 116 7 44 174 189 171 186 32 1 12 50 68 79 82 67 96 158 44 43 142 74 105 88 60 70 60 30 43 58 36
0 0 0 0 0 0 0 0 0 0 13 34 63 41 60 93 58 52 79 83 16 7 18 129 219 326 257 210 216 36 22 17 18 9 35 86 134 118 227 95 205 254 132 140 3 0 15 52 176 127 77 46 55 81
0 0 0 0 0 0 0 0 0 13 19 24 31 43 43 50 81 53 6 0 14 15 17 270 350 191 234 92 46 36 36 19 36 55 67 78 88 125 86 56 53 88 56 26 186 57 0 0 0 18 25 62 102 167
0 0 0 0 0 0 0 0 0 0 4 0 5 13 11 14 18 32 34 11 0 0 0 14 134 38 169 85 261 111 47 60 59 72 139 96 104 67 17 0 40 83 140 46 166 21 0 0 0 0 0 3 16 18
0 0 0 0 0 0 0 0 0 21 14 16 23 34 30 38 31 32 17 2 0 0 0 1 66 145 237 245 289 98 1 22 45 68 75 65 90 79 47 73 47 104 56 60 205 207 18 0 0 0 0 0 21 30
0 0 0 0 0 0 6 2 5 5 9 21 35 37 27 31 24 37 6 0 0 0 4 44 91 170 212 317 377 257 133 76 68 30 24 14 16 14 33 72 90 50 20 0 2 95 236 68 13 13 25 40 47 61

GFSWCAN_con_mucape_339.txt.gz
CAPE
0 0 0 0 0 0 0 0 0 0 0 0 0 0 0 0 0 0 0 0 0 0 0 0 0 0 0 0 0 0 0 0 0 0 0 0 0 0 0 11 68 21 100 96 87 0 0 21 104 490 264 292 263 320
0 0 0 0 0 0 0 0 0 0 0 0 0 0 0 0 0 0 0 0 0 0 0 0 0 0 0 0 0 0 0 0 0 0 0 0 0 0 0 0 3 66 38 175 131 62 12 7 12 0 0 2 12 0
0 0 0 0 0 0 0 0 0 0 0 0 0 0 0 0 0 0 0 0 0 0 0 0 0 0 0 0 0 0 0 0 0 0 0 0 0 0 0 0 0 0 0 0 12 0 6 0 0 0 8 3 0 0
0 0 0 0 0 0 0 0 0 0 0 0 0 0 0 0 0 0 0 0 0 0 0 0 0 0 0 0 0 0 0 0 0 0 0 0 0 0 0 0 0 0 0 0 0 0 0 0 0 3 1 0 0 0
0 0 0 0 0 0 0 0 0 0 0 0 0 0 0 0 0 0 0 0 0 0 0 0 0 0 0 0 0 0 0 0 0 0 0 0 0 0 0 0 0 0 0 0 0 0 0 0 0 0 0 0 0 0
0 0 0 0 0 0 0 0 0 0 0 0 0 0 0 0 0 0 0 0 0 9 4 0 0 0 0 0 0 0 0 0 0 0 0 0 0 0 0 0 0 0 0 0 0 0 0 0 0 0 0 0 16 264
0 0 0 0 0 0 0 0 0 0 0 0 0 0 0 0 0 0 0 0 0 0 0 0 0 0 0 0 0 0 0 0 0 0 0 0 0 0 0 0 0 4 0 0 0 0 0 0 0 0 0 0 48 265
0 0 0 0 0 0 0 0 0 0 0 0 0 0 0 0 0 0 0 0 0 0 0 0 0 4 2 0 0 0 0 0 0 0 0 0 0 10 1 0 37 8 0 0 0 0 0 0 0 0 0 21 95 529
0 0 0 0 0 0 0 0 0 0 0 0 0 0 0 0 0 1 0 0 0 0 0 4 0 40 21 29 54 38 63 25 30 0 0 0 0 0 82 66 20 0 0 5 0 0 0 0 0 0 0 13 133 372
0 0 0 0 0 0 0 0 0 0 0 0 0 0 4 3 0 0 0 0 0 0 0 0 0 0 19 58 51 31 39 10 11 1 13 18 6 65 29 22 0 0 0 0 0 0 0 0 0 9 30 57 168 438
0 0 0 0 0 0 0 0 0 0 0 0 0 0 0 0 0 2 8 11 15 13 0 0 0 0 44 141 154 127 65 67 39 20 40 22 80 81 34 1 0 0 0 0 0 0 0 0 0 18 138 150 270 306
0 0 0 0 0 0 0 0 0 0 0 0 0 0 0 0 0 12 22 23 56 71 244 182 36 0 240 255 159 133 59 75 49 187 108 118 235 101 51 4 0 0 0 0 0 0 0 2 7 29 115 152 366 315
0 0 0 0 0 0 0 0 0 0 0 0 0 0 9 0 1 7 0 44 121 57 149 303 238 120 198 186 214 188 143 88 83 119 69 214 483 217 85 30 1 0 0 0 0 0 0 6 8 59 30 343 415 375
0 0 0 0 0 0 0 0 0 0 0 11 38 0 11 19 23 23 76 86 213 383 78 24 177 105 388 189 295 125 199 169 93 38 129 298 496 120 77 69 0 0 0 0 0 2 3 19 41 4 77 271 333 343
0 0 0 0 0 0 8 2 0 0 0 0 0 0 2 18 20 34 63 37 97 126 146 1 58 131 56 155 244 129 98 86 135 109 346 428 449 303 129 52 0 0 1 1 1 11 105 131 193 117 193 206 261 359
0 0 0 0 2 8 3 1 0 0 8 0 0 0 0 9 41 13 40 93 124 139 125 119 56 48 84 58 86 122 130 103 167 249 411 537 552 360 161 93 36 116 103 70 118 71 203 190 156 200 255 176 142 363
0 0 0 0 0 0 0 0 0 6 9 11 0 0 0 5 7 18 8 98 135 182 115 38 0 0 4 102 125 175 176 218 250 359 338 424 419 223 130 23 164 285 258 245 217 158 134 126 152 269 250 122 69 258
0 0 0 0 0 0 0 0 9 6 0 13 4 0 4 32 6 30 27 49 92 17 39 0 35 57 86 68 118 101 141 66 406 502 466 687 566 311 132 125 326 273 256 174 147 118 48 29 10 3 1 6 120 148
0 0 0 0 0 0 0 0 0 0 0 0 16 19 17 32 5 35 12 35 116 58 27 0 0 0 0 33 134 54 147 52 30 285 611 526 372 212 118 366 337 263 19 2 0 0 8 3 0 0 0 0 37 32
0 0 0 0 0 0 0 0 0 0 0 0 0 5 1 0 0 65 2 20 57 78 117 104 55 28 35 41 265 234 105 178 113 348 396 436 423 408 442 342 336 428 20 24 11 0 0 0 0 0 0 0 1 22
2 3 0 0 0 0 0 0 0 0 0 0 0 0 0 77 68 63 61 54 59 0 0 0 24 1 12 171 94 106 34 58 136 280 295 393 301 338 443 481 663 508 111 13 4 0 38 44 13 21 28 10 0 17
4 7 5 10 1 1 0 1 0 0 0 0 0 0 0 0 57 80 22 17 0 2 6 2 31 47 55 142 91 14 40 84 80 95 18 11 263 285 345 296 352 58 35 34 21 1 28 163 127 96 108 49 39 68
7 8 10 8 0 0 0 0 0 0 0 0 0 0 48 89 136 126 44 23 1 1 1 24 46 300 306 105 143 42 13 2 41 105 95 43 77 270 205 208 126 101 180 72 87 83 119 128 60 11 79 128 56 53
9 10 2 6 0 0 0 0 0 0 0 0 0 0 4 151 130 57 0 10 9 91 43 143 214 79 90 296 218 303 94 56 23 66 75 110 33 91 136 79 60 40 117 145 72 196 85 51 86 36 42 54 18 39
0 0 0 0 0 0 0 0 0 0 0 0 0 0 50 110 49 56 28 65 217 336 148 352 178 254 88 37 158 76 15 7 32 71 307 230 63 48 217 99 195 154 55 90 123 126 161 131 29 28 34 37 24 57
0 0 0 0 0 0 0 0 0 0 0 0 0 13 100 61 14 10 123 78 201 265 220 114 260 124 121 161 50 129 51 51 227 211 94 133 37 43 157 198 240 280 91 72 41 73 78 119 128 146 40 8 7 26
0 0 0 0 0 0 0 0 0 0 0 0 45 61 19 0 0 150 180 222 261 13 3 20 56 31 122 36 45 199 68 275 426 197 212 150 52 67 130 302 466 464 307 194 256 285 54 122 110 43 84 27 26 23
0 0 0 0 0 0 0 0 0 0 0 4 46 27 37 0 69 245 14 60 121 45 11 47 39 37 29 47 109 260 163 176 105 133 41 81 106 55 67 31 194 159 310 82 57 116 147 128 182 104 35 31 74 40
0 0 0 0 0 0 0 0 0 0 0 12 9 53 5 51 77 66 51 82 38 41 53 88 47 15 18 5 12 92 119 190 151 68 114 124 70 53 40 77 56 212 146 155 91 78 47 58 174 175 311 122 70 91
0 0 0 0 0 0 0 0 0 0 0 4 16 4 20 27 140 82 55 42 44 38 57 199 147 181 116 133 140 165 246 73 8 10 26 58 194 110 112 73 38 19 12 16 5 17 80 60 0 10 36 101 121 182
0 0 0 0 0 0 0 0 0 0 0 0 0 0 0 0 0 0 4 20 30 9 11 28 143 81 160 181 324 325 100 57 71 49 45 91 192 216 298 191 51 34 2 62 106 56 66 93 0 4 2 63 104 29
0 0 0 0 0 0 0 0 0 0 0 0 0 4 13 17 0 0 0 2 9 9 12 9 26 19 19 25 180 304 72 158 401 88 79 49 130 220 198 111 78 38 9 70 161 47 73 40 19 4 2 44 47 37
0 0 0 0 0 4 15 1 3 1 1 7 12 18 16 11 16 7 69 12 16 5 18 28 38 93 312 265 166 72 107 629 54 63 54 153 156 151 130 254 64 71 43 144 57 98 69 38 20 230 156 35 23 50

GFSWCAN_con_mucape_342.txt.gz
CAPE
0 0 0 0 0 0 0 0 0 0 0 0 0 0 0 0 0 0 0 0 0 0 0 0 0 0 0 0 0 0 0 0 0 0 0 0 0 0 0 0 0 0 2 2 3 2 1 0 0 0 0 52 44 19
0 0 0 0 0 0 0 0 0 0 0 0 0 0 0 0 0 0 0 0 0 0 0 0 0 0 0 0 0 0 0 0 0 0 0 0 0 0 0 0 0 1 3 0 13 0 0 0 0 0 10 16 0 0
0 0 0 0 0 0 0 0 0 0 0 0 0 0 0 0 0 0 0 0 0 0 0 0 0 0 0 0 0 0 0 0 0 0 0 0 0 0 0 0 0 0 0 6 0 0 0 0 0 0 0 0 0 0
0 0 0 0 0 0 0 0 0 0 0 0 0 0 0 0 0 0 0 0 0 0 0 0 0 0 0 0 0 0 0 0 0 0 0 0 0 0 0 0 0 0 0 0 0 0 0 0 0 0 0 0 0 0
0 0 0 0 0 0 0 0 0 0 0 0 0 0 0 0 0 0 0 0 0 0 0 0 0 0 0 0 0 0 0 0 0 0 0 0 0 0 0 0 0 0 0 0 0 0 0 0 0 0 0 0 0 87
0 0 0 0 0 0 0 0 0 0 0 0 0 0 0 0 0 0 0 0 0 0 0 0 0 0 0 0 0 0 0 0 0 0 0 0 0 0 0 0 0 0 0 0 0 0 0 0 0 0 0 0 52 39
0 0 0 0 0 0 0 0 0 0 0 0 0 0 0 0 0 0 0 0 0 0 0 0 0 0 0 0 0 0 0 0 0 0 0 0 0 0 0 0 0 0 0 0 0 0 0 0 0 0 0 0 0 3
0 0 0 0 0 0 0 0 0 0 0 0 0 0 0 0 0 0 0 0 0 0 0 0 0 0 0 0 0 0 0 0 0 0 0 0 0 0 0 0 0 0 0 0 0 0 0 0 0 0 0 0 0 0
0 0 0 0 0 0 0 0 0 0 0 0 0 0 0 0 0 0 0 0 0 0 0 0 0 0 0 0 0 0 7 0 0 0 0 0 0 0 0 0 4 4 0 2 0 1 0 0 0 0 0 0 13 11
0 0 0 0 0 0 0 0 0 0 0 0 0 0 0 2 0 0 0 0 0 0 0 0 0 0 2 4 11 23 13 19 0 0 0 2 0 2 32 23 29 7 3 7 3 0 0 0 0 0 0 0 17 9
0 0 0 0 0 0 0 0 0 0 0 0 0 0 0 0 0 0 0 0 0 0 0 0 0 0 0 43 41 22 25 25 6 5 0 8 39 18 24 17 0 1 12 18 0 0 0 0 0 0 0 0 0 1
0 0 0 0 0 0 0 0 0 0 0 0 0 0 0 0 0 0 5 4 6 2 8 23 40 28 0 42 27 70 31 33 17 23 60 58 75 17 18 15 31 35 24 5 0 0 0 0 0 0 2 4 0 0
1 0 0 0 0 0 0 0 0 0 0 0 0 0 0 0 0 0 0 1 4 31 45 39 43 29 61 41 17 88 67 18 18 17 36 127 87 58 62 62 40 32 1 0 0 0 0 0 0 0 0 0 0 0
1 0 0 0 0 0 0 0 0 0 0 0 0 0 0 12 4 1 8 26 64 82 36 36 25 39 32 42 60 37 49 47 47 26 40 270 119 94 62 51 21 0 0 0 0 0 0 0 0 0 0 0 0 0
6 3 0 0 0 0 0 0 6 4 1 2 4 0 0 1 23 14 18 13 45 27 3 2 2 25 7 14 28 48 44 39 12 35 228 276 187 108 35 0 0 0 0 0 0 0 0 0 0 0 0 0 0 0
2 5 0 0 0 0 0 0 1 4 2 1 1 0 0 0 0 15 35 32 15 48 25 25 0 0 1 24 10 34 46 30 55 206 365 241 201 140 50 0 0 0 0 0 0 0 0 0 0 0 0 0 0 0
1 0 0 0 0 0 0 0 0 16 0 0 0 0 0 0 0 0 15 13 57 18 0 7 0 0 0 0 0 49 38 92 281 397 362 283 221 131 25 0 0 0 0 0 0 0 0 0 0 0 0 0 0 38
0 0 0 0 0 0 0 0 0 1 0 5 1 0 0 0 0 0 2 55 33 9 13 0 29 0 2 3 22 10 42 143 148 162 255 238 150 81 13 8 1 6 0 0 0 0 0 0 0 0 0 0 0 138
0 0 0 0 0 0 0 0 0 0 0 0 0 0 0 0 2 7 8 12 41 43 43 4 0 0 0 0 0 16 4 6 67 250 315 258 93 11 4 36 31 0 0 0 0 0 0 0 0 0 16 0 14 28
0 0 0 0 0 0 0 0 0 0 0 0 0 0 0 0 0 0 0 23 30 8 27 0 0 0 0 0 8 12 8 10 59 234 259 94 36 24 20 42 44 25 0 0 0 0 0 0 0 4 23 28 30 18
0 1 3 11 0 0 0 0 0 0 0 0 0 0 0 0 0 0 0 23 17 0 0 0 4 17 30 13 0 2 6 1 40 64 99 86 47 41 31 102 55 97 15 0 0 0 0 0 0 0 3 6 18 34
3 12 7 5 1 0 0 0 0 0 0 0 0 0 0 0 0 0 22 0 0 0 0 0 0 7 11 0 1 11 10 3 11 54 46 43 217 74 87 103 74 71 92 56 1 0 0 0 3 10 15 31 36 49
4 8 9 5 1 0 0 0 0 0 0 0 0 0 0 0 18 26 0 0 0 4 1 0 0 0 0 8 36 24 9 8 0 7 63 45 16 117 103 105 181 145 53 32 41 25 21 8 101 91 59 80 87 88
12 7 6 0 0 0 0 0 0 0 0 0 0 0 0 0 30 13 0 0 1 0 0 1 0 0 13 65 48 12 1 0 0 1 28 14 25 13 51 99 112 169 73 44 58 38 40 42 65 52 29 33 45 53
0 0 0 0 0 0 0 0 0 0 0 0 0 0 0 24 0 31 20 18 43 21 63 55 24 31 49 41 47 37 25 3 0 7 20 15 31 32 23 23 27 30 37 44 75 50 42 53 69 117 61 28 23 20
0 0 0 0 0 0 0 0 0 0 0 0 0 0 0 3 0 0 28 21 47 27 27 17 44 32 52 62 51 23 43 30 9 10 36 52 60 23 24 27 22 38 24 40 42 30 24 37 30 14 25 23 18 12
0 0 0 0 0 0 0 0 0 0 0 0 0 0 0 0 0 10 21 37 3 0 2 16 21 39 37 40 58 39 33 35 28 23 47 88 132 81 35 24 31 31 47 0 9 9 22 31 15 21 34 24 22 20
0 0 0 0 0 0 0 0 0 0 0 0 0 7 5 0 0 22 7 18 31 15 4 16 13 17 19 42 56 53 51 72 56 44 65 63 66 37 44 18 36 52 56 61 23 11 23 41 35 19 23 29 30 31
0 0 0 0 0 0 0 0 0 0 0 0 0 0 0 3 14 2 2 2 3 11 24 14 49 55 39 44 58 70 81 62 54 31 40 8 43 38 23 18 29 49 54 45 33 20 21 22 35 21 29 37 45 18
0 0 0 0 0 0 0 0 0 0 0 0 0 0 0 0 0 1 1 2 5 0 3 19 37 54 62 68 98 154 152 128 148 58 53 4 25 37 41 27 14 29 43 23 15 10 4 9 32 40 37 23 16 28
0 0 0 0 0 0 0 0 0 0 0 0 0 0 0 0 0 0 0 0 0 0 0 7 69 69 35 40 47 63 88 78 90 65 68 21 31 24 20 7 4 9 0 0 0 4 12 24 32 63 48 1 0 8
0 0 0 0 0 0 1 0 0 0 0 0 0 0 0 0 0 0 0 0 0 0 0 0 0 7 10 25 39 56 34 22 27 11 2 8 16 21 16 14 18 15 10 0 5 4 27 50 22 42 43 0 0 0
0 0 0 1 4 11 6 4 6 5 21 38 27 3 2 6 10 19 16 0 0 0 0 1 4 0 3 1 29 19 12 5 4 10 0 2 14 16 20 26 21 34 40 7 4 19 32 43 11 9 0 8 21 58

GFSWCAN_con_mucape_345.txt.gz
CAPE
0 0 0 0 0 0 0 0 0 0 0 0 0 0 0 0 0 0 0 0 0 0 0 0 0 0 0 0 0 0 0 0 0 0 0 0 0 0 0 0 0 0 4 10 4 0 2 2 9 33 0 0 0 0
0 0 0 0 0 0 0 0 0 0 0 0 0 0 0 0 0 0 0 0 0 0 0 0 0 0 0 0 0 0 0 0 0 0 0 0 0 0 0 0 0 3 29 49 80 37 40 62 44 18 17 16 13 4
0 0 0 0 0 0 0 0 0 0 0 0 0 0 0 0 0 0 0 0 0 0 0 0 0 0 0 0 0 0 0 0 0 0 0 0 0 0 0 0 0 0 12 8 5 47 98 54 13 7 6 6 0 0
0 0 0 0 0 0 0 0 0 0 0 0 0 0 0 0 0 0 0 0 0 0 0 0 0 0 0 0 0 0 0 0 0 0 0 0 0 0 0 0 0 0 0 13 0 0 20 2 0 0 0 0 0 0
0 0 0 0 0 0 0 0 0 0 0 0 0 0 0 0 0 0 0 0 0 0 0 0 0 0 0 0 0 0 0 0 0 0 0 0 0 0 0 0 0 0 0 0 0 0 0 0 0 0 0 0 0 3
0 0 0 0 0 0 0 0 0 0 0 0 0 0 0 0 0 0 0 0 0 0 0 0 0 0 0 0 0 0 0 0 0 0 0 0 0 0 0 0 0 0 0 0 0 0 0 0 0 0 0 0 0 0
0 0 0 0 0 0 0 0 0 0 0 0 0 0 0 0 0 0 0 0 0 0 0 0 0 0 0 0 0 0 0 0 0 0 0 0 0 0 0 0 0 0 0 0 0 0 0 0 0 0 1 0 0 0
0 0 0 0 0 0 0 0 0 0 0 0 0 0 0 0 0 0 0 0 0 0 0 0 0 0 0 0 0 0 0 0 0 0 0 0 0 0 0 0 0 0 0 0 0 0 0 0 0 0 0 0 0 0
0 0 0 0 0 0 0 0 0 0 0 0 0 0 0 0 0 0 0 0 0 0 0 0 0 0 0 0 0 0 0 0 0 0 0 0 0 0 0 0 0 15 29 13 0 1 0 0 0 0 0 0 0 0
0 0 0 0 0 0 0 0 0 0 0 0 0 0 0 0 0 0 0 0 0 0 0 0 0 0 0 0 0 18 52 26 8 0 0 0 0 0 0 0 30 48 54 43 37 13 3 0 0 0 0 0 0 0
12 4 1 0 0 0 0 0 0 0 0 0 0 0 0 0 0 0 0 0 0 0 0 0 0 0 0 0 7 35 20 10 5 0 0 0 0 0 21 42 71 79 76 46 35 17 0 0 0 0 0 0 0 0
9 3 3 0 0 0 0 0 0 0 0 0 0 0 0 0 0 0 0 6 8 0 11 31 25 4 0 0 30 23 51 49 22 15 43 5 54 57 72 104 99 51 53 38 20 0 0 0 0 0 0 0 0 0
1 6 3 1 0 0 0 0 0 0 0 0 0 0 0 0 0 0 0 0 0 33 60 36 13 26 32 40 22 65 43 25 19 22 39 110 80 62 70 57 42 48 38 27 0 0 0 0 0 0 0 0 0 0
2 3 1 1 0 0 0 0 0 0 0 0 0 0 0 0 0 1 1 16 54 77 50 46 30 2 34 31 33 0 28 41 31 28 35 149 75 79 61 63 52 25 7 0 0 0 0 0 0 0 0 0 0 0
3 2 1 1 1 0 0 0 0 2 3 2 0 0 0 1 17 15 33 14 47 27 26 23 12 17 9 24 0 39 19 13 9 21 26 244 73 83 48 31 9 0 0 0 0 0 0 0 0 0 0 0 0 0
3 0 0 1 0 0 0 0 0 0 0 6 0 0 0 0 15 21 21 15 21 17 29 25 8 0 1 14 0 0 0 0 23 169 274 94 87 54 49 25 3 0 0 0 0 0 0 0 0 0 0 0 0 0
0 0 0 0 0 0 0 0 0 0 0 0 0 0 0 0 0 3 11 18 23 11 3 3 0 0 0 0 0 0 0 24 79 348 213 155 114 88 32 12 0 0 0 0 0 0 0 3 9 1 0 3 0 0
0 0 0 0 0 0 0 0 0 0 0 2 0 0 0 0 0 0 0 0 15 17 23 12 32 44 0 0 0 11 26 27 53 137 221 160 120 61 37 4 0 0 0 0 0 0 0 0 0 0 0 0 0 22
1 0 0 0 0 0 0 0 0 0 0 0 0 0 0 0 0 0 0 0 10 34 42 25 2 0 0 0 0 3 5 0 15 18 82 186 106 56 5 1 8 0 0 0 0 0 0 0 0 1 0 5 21 14
0 0 0 0 0 0 0 0 0 0 0 0 0 0 0 0 0 0 0 0 2 55 43 41 11 0 0 9 13 5 13 17 12 23 53 145 134 32 11 22 25 13 0 0 0 0 0 0 3 13 14 31 22 10
0 0 2 6 2 0 0 0 0 0 0 0 0 0 0 0 0 0 0 0 0 0 17 15 22 10 20 8 0 0 2 14 22 6 74 84 103 22 6 29 43 41 35 0 0 0 0 0 0 4 8 3 12 7
1 10 2 9 0 0 0 0 0 0 0 0 0 0 0 0 1 0 0 0 0 0 0 0 2 1 13 1 2 0 2 17 9 3 30 80 79 37 18 38 56 49 51 33 21 1 0 0 4 10 13 4 2 18
2 3 0 3 0 0 0 0 0 0 0 0 0 0 0 0 0 11 0 0 0 0 0 0 0 0 0 0 4 7 7 21 3 2 17 23 30 49 95 86 66 65 64 59 32 32 16 16 11 17 28 32 37 33
7 3 0 0 0 0 0 0 0 0 0 0 0 0 0 0 2 36 14 0 3 12 0 0 4 0 0 0 0 0 8 5 16 4 0 13 50 38 14 15 38 72 107 154 62 43 32 36 37 38 26 7 20 24
0 0 0 0 0 0 0 0 0 0 0 0 0 0 0 0 1 24 18 28 16 30 27 30 18 5 0 0 0 14 25 28 12 0 0 16 31 36 5 20 14 20 42 60 111 45 38 37 38 39 39 35 16 15
0 0 0 0 0 0 0 0 0 0 0 0 0 0 0 0 0 0 1 0 0 29 26 23 7 5 19 13 21 40 53 38 23 9 1 3 11 14 18 29 0 5 17 25 27 39 46 42 32 28 21 27 29 28
0 0 0 0 0 0 0 0 0 0 0 0 0 0 0 0 0 0 0 0 5 26 9 15 19 13 20 37 61 64 60 36 10 29 34 16 25 41 37 16 17 18 22 28 15 12 15 14 20 18 14 14 12 31
0 0 0 0 0 0 0 0 0 0 0 0 0 9 0 5 0 0 18 0 5 0 0 0 9 7 17 21 33 53 58 55 32 23 39 33 35 45 63 102 111 39 21 20 18 10 10 19 28 32 35 43 39 35
0 0 0 0 0 0 0 0 0 0 0 0 0 0 0 1 0 0 0 3 5 0 2 18 38 33 46 37 52 72 66 71 73 53 51 33 34 44 40 35 22 15 5 9 16 14 13 6 20 29 19 36 69 64
0 0 0 0 0 0 0 0 0 0 0 0 0 0 0 0 0 0 0 0 1 0 5 8 28 46 70 75 82 89 85 55 46 42 32 31 37 16 11 6 2 14 19 31 30 24 15 23 41 37 3 0 13 33
0 0 0 0 0 0 0 0 0 0 0 0 0 0 0 0 0 0 0 0 0 1 0 11 7 12 52 54 40 45 55 38 34 32 33 27 19 0 0 1 14 26 23 18 12 6 9 11 26 39 31 18 1 0
0 0 0 0 4 13 12 5 10 18 15 0 0 0 0 0 0 0 0 0 0 0 4 5 1 12 16 13 18 16 22 20 12 13 9 9 10 17 6 11 15 12 17 30 6 0 0 0 9 25 33 32 10 0
0 0 4 7 12 0 0 0 5 18 39 44 28 2 4 12 21 19 12 7 0 0 0 0 1 12 6 4 1 10 26 11 15 39 63 5 4 3 5 11 24 24 18 23 5 0 0 1 7 21 21 11 9 0